Tracking 17155 objects as of 30-July-2015
HD Live streaming from Space Station

ALPHASAT (INMARSAT 4A-F4)

Track ALPHASAT (INMARSAT 4A-F4) now!
ALPHASAT (INMARSAT 4A-F4) is classified as:


NORAD ID: 39215
Int'l Code: 2013-038A
Perigee: 35,783.2 km
Apogee: 35,802.9 km
Inclination: 0.9 °
Period: 1,436.1 minutes
Semi major axis: 42164 km
RCS: Unknown
Launch date: July 25, 2013
Source: International Mobile Satellite Organization (INMARSAT) (IM)

INMARSAT-4A F4, with 12 kilowatts of end-of-life power, will operate a contracted 15 years from 25 degrees east to expand the amount of L-band spectrum Inmarsat has at its disposal with its existing fleet.
Your satellite tracking list
Your tracking list is empty





NASA's NSSDC Master Catalog

Two Line Element Set (TLE):
1 39215U 13038A   15209.71517575  .00000133  00000-0  00000+0 0  9996
2 39215 000.9110 033.2699 0002333 093.5836 101.4983 01.00274182  7390

Source of the keplerian elements: AFSPC

N2YO: 279